Kosmos-940

operational
NORAD ID: 10286 Int'l Des: 1977-079 Owner: GUKOSR Country: SU
LEOCIRCULAR

About Kosmos-940

Description loading...

Live Position

Loading 3D Globe...

Upcoming Passes

Altitude History

Altitude vs Time

uPlot chart will show altitude changes over time

Two-Line Element Set

1 10286U 77079B 26047.19397517 .00000012 00000-0 16622-3 0 9991
2 10286 74.0228 91.7687 0042949 40.7479 16.6906 12.58900459196950
Epoch: Feb 16, 2026 • Age: 4 hours

Current Status

Altitude 1446.8 km
Velocity 7.13 km/s
Sub-Earth Point 17.10°N, 15.21°W
Launch Date Aug 24, 1977
Age 48.4 years
Type other

Technical Details

Classification Payload
Mass 60.00 kg
Dry Mass 60.00 kg
Total Mass 60.00 kg
Length 0.80 m
Diameter 0.80 m
Span 0.80 m
Shape Poly
Manufacturer NPOPM
Bus Type Strela-1 11F625
Phase Status In Orbit
Owner/State GUKOSR/SU

Large Constellations

Loading constellations...